{"data":{"norad_id":52986,"intl_designator":"2022-076A","name":"STARLINK-4260","alt_names":[],"object_type":"PAYLOAD","status":"ACTIVE","operator":null,"country":"US","launch_date":"2022-07-07","launch_site_code":"AFETR","launch_vehicle":null,"mission":null,"orbit_class":"UNKNOWN","rcs_meters":null,"size_class":null,"mass_kg":null,"dimensions":null,"purposes":["comms"],"wikipedia_slug":null,"has_3d_model":false,"image_url":null,"decayed_at":null,"tle_current":{"epoch":"2026-05-25T03:39:36.723168Z","epoch_age_seconds":72390,"freshness":"FRESH","line1":"1 52986U 22076A   26145.15250837 -.00001998  00000+0 -10747-3 0  9996","line2":"2 52986  53.2147 110.8641 0001285  98.1648 261.9490 15.08848703214380","mean_motion":15.08848703,"eccentricity":0.0001285,"inclination_deg":53.2147,"raan_deg":110.8641,"arg_perigee_deg":98.1648,"mean_anomaly_deg":261.949,"bstar":-0.00010747,"rev_number":21438,"period_min":95.437004196437,"perigee_km":538.82784329096,"apogee_km":540.60573171435,"semimajor_km":6917.8537875027,"source":"CELESTRAK","updated_at":"2026-05-25T13:38:17.272458Z"}}}